• In Moldova, Republic
  • List of Countries
  • For 7 days
  • Water Temperature
  • Satellite Maps
  • Weather Map
  • Weather Widgets
  • user-avatar
    Login

    Hourly Weather Sydney

    Today, 27 April, Thursday

    Time Temperature Precipitation Wind Pressure Humidity
    00:00 +11°C° 0 mm 7 mps 757 mmHg 65%
    01:00 +11°C° 0 mm 7 mps 757 mmHg 64%
    02:00 +10°C° 0 mm 7 mps 757 mmHg 65%
    03:00 +10°C° 0 mm 7 mps 758 mmHg 66%
    04:00 +9°C° 0 mm 6 mps 758 mmHg 69%
    05:00 +9°C° 0 mm 6 mps 758 mmHg 68%
    06:00 +9°C° 0 mm 6 mps 759 mmHg 68%
    07:00 +9°C° 0 mm 6 mps 759 mmHg 67%
    08:00 +10°C° 0 mm 6 mps 760 mmHg 60%
    09:00 +13°C° 0 mm 6 mps 760 mmHg 53%
    10:00 +15°C° 0 mm 7 mps 760 mmHg 46%
    11:00 +16°C° 0 mm 7 mps 760 mmHg 45%
    12:00 +17°C° 0 mm 7 mps 760 mmHg 44%
    13:00 +18°C° 0 mm 7 mps 760 mmHg 42%
    14:00 +18°C° 0.1 mm 7 mps 760 mmHg 44%
    15:00 +18°C° 0.1 mm 7 mps 760 mmHg 45%
    16:00 +18°C° 0.1 mm 7 mps 760 mmHg 46%
    17:00 +16°C° 0.1 mm 8 mps 761 mmHg 53%
    18:00 +13°C° 0.1 mm 8 mps 761 mmHg 60%
    19:00 +11°C° 0.1 mm 8 mps 762 mmHg 66%
    20:00 +11°C° 0.1 mm 8 mps 762 mmHg 67%
    21:00 +11°C° 0.1 mm 8 mps 763 mmHg 68%
    22:00 +11°C° 0.1 mm 8 mps 763 mmHg 68%
    23:00 +10°C° 0.1 mm 7 mps 763 mmHg 68%

    Tomorrow, 28 April, Friday

    Time Temperature Precipitation Wind Pressure Humidity
    00:00 +10°C° 0.1 mm 7 mps 763 mmHg 68%
    01:00 +9°C° 0.1 mm 7 mps 764 mmHg 68%
    02:00 +9°C° 0 mm 7 mps 764 mmHg 68%
    03:00 +8°C° 0 mm 7 mps 764 mmHg 68%
    04:00 +8°C° 0 mm 6 mps 764 mmHg 68%
    05:00 +8°C° 0 mm 6 mps 764 mmHg 68%
    06:00 +7°C° 0 mm 5 mps 765 mmHg 68%
    07:00 +7°C° 0 mm 5 mps 765 mmHg 68%
    08:00 +10°C° 0 mm 5 mps 765 mmHg 61%
    09:00 +13°C° 0 mm 5 mps 765 mmHg 54%
    10:00 +16°C° 0 mm 5 mps 765 mmHg 48%
    11:00 +18°C° 0 mm 4 mps 765 mmHg 45%
    12:00 +19°C° 0 mm 4 mps 765 mmHg 42%
    13:00 +21°C° 0 mm 4 mps 764 mmHg 39%
    14:00 +21°C° 0 mm 4 mps 764 mmHg 41%
    15:00 +20°C° 0 mm 3 mps 764 mmHg 44%
    16:00 +20°C° 0 mm 3 mps 764 mmHg 46%
    17:00 +17°C° 0 mm 3 mps 764 mmHg 59%
    18:00 +14°C° 0 mm 3 mps 764 mmHg 72%
    19:00 +11°C° 0 mm 3 mps 765 mmHg 85%
    20:00 +11°C° 0 mm 3 mps 765 mmHg 85%
    21:00 +12°C° 0 mm 2 mps 765 mmHg 85%
    22:00 +12°C° 0 mm 2 mps 766 mmHg 85%
    23:00 +12°C° 0 mm 2 mps 765 mmHg 81%

    Day after tomorrow, 29 April, Saturday

    Time Temperature Precipitation Wind Pressure Humidity
    00:00 +12°C° 0 mm 2 mps 765 mmHg 77%
    01:00 +11°C° 0 mm 3 mps 765 mmHg 73%
    02:00 +10°C° 0 mm 3 mps 765 mmHg 73%
    03:00 +10°C° 0 mm 3 mps 764 mmHg 72%
    04:00 +9°C° 0 mm 3 mps 764 mmHg 72%
    05:00 +9°C° 0 mm 3 mps 764 mmHg 73%
    06:00 +9°C° 0 mm 3 mps 765 mmHg 74%
    07:00 +9°C° 0 mm 3 mps 765 mmHg 75%
    08:00 +12°C° 0 mm 3 mps 765 mmHg 65%
    09:00 +17°C° 0 mm 3 mps 765 mmHg 55%
    10:00 +20°C° 0 mm 2 mps 765 mmHg 46%
    11:00 +21°C° 0 mm 2 mps 765 mmHg 42%
    12:00 +24°C° 0 mm 2 mps 764 mmHg 39%
    13:00 +25°C° 0 mm 2 mps 763 mmHg 36%
    14:00 +24°C° 0 mm 2 mps 763 mmHg 39%
    15:00 +22°C° 0 mm 3 mps 763 mmHg 43%
    16:00 +22°C° 0 mm 3 mps 763 mmHg 47%
    17:00 +19°C° 0 mm 3 mps 764 mmHg 59%
    18:00 +17°C° 0 mm 3 mps 764 mmHg 70%
    19:00 +13°C° 0 mm 3 mps 765 mmHg 81%
    20:00 +13°C° 0 mm 3 mps 765 mmHg 81%
    21:00 +13°C° 0 mm 4 mps 765 mmHg 81%
    22:00 +13°C° 0 mm 4 mps 766 mmHg 80%
    23:00 +14°C° 0.2 mm 5 mps 766 mmHg 79%

    30 April, Sunday

    Time Temperature Precipitation Wind Pressure Humidity
    00:00 +14°C° 0.2 mm 5 mps 765 mmHg 78%
    01:00 +14°C° 0.2 mm 6 mps 765 mmHg 78%
    02:00 +13°C° 0 mm 6 mps 765 mmHg 79%
    03:00 +13°C° 0 mm 6 mps 765 mmHg 80%
    04:00 +13°C° 0 mm 6 mps 765 mmHg 81%
    05:00 +11°C° 0.1 mm 6 mps 765 mmHg 82%
    06:00 +11°C° 0.1 mm 6 mps 766 mmHg 84%
    07:00 +10°C° 0.1 mm 6 mps 766 mmHg 85%
    08:00 +14°C° 0.1 mm 5 mps 766 mmHg 77%
    09:00 +16°C° 0.1 mm 5 mps 766 mmHg 69%
    10:00 +19°C° 0.1 mm 5 mps 766 mmHg 61%
    11:00 +20°C° 0.1 mm 5 mps 766 mmHg 60%
    12:00 +21°C° 0.1 mm 5 mps 765 mmHg 58%
    13:00 +22°C° 0.1 mm 5 mps 765 mmHg 56%
    14:00 +21°C° 0.1 mm 4 mps 764 mmHg 59%
    15:00 +21°C° 0.1 mm 4 mps 764 mmHg 62%
    16:00 +21°C° 0.1 mm 4 mps 764 mmHg 64%
    17:00 +19°C° 0 mm 3 mps 764 mmHg 74%
    18:00 +16°C° 0 mm 3 mps 764 mmHg 84%
    19:00 +14°C° 0 mm 2 mps 765 mmHg 94%
    20:00 +14°C° 0 mm 2 mps 765 mmHg 95%
    21:00 +14°C° 0 mm 2 mps 765 mmHg 96%
    22:00 +13°C° 0 mm 1 mps 765 mmHg 96%
    23:00 +13°C° 0 mm 1 mps 764 mmHg 97%

    1 May, Monday

    Time Temperature Precipitation Wind Pressure Humidity
    00:00 +13°C° 0 mm 1 mps 764 mmHg 97%
    01:00 +13°C° 0 mm 1 mps 764 mmHg 97%
    02:00 +12°C° 0 mm 1 mps 763 mmHg 98%
    03:00 +12°C° 0 mm 1 mps 763 mmHg 98%
    04:00 +11°C° 0 mm 1 mps 763 mmHg 98%
    05:00 +12°C° 0 mm 2 mps 763 mmHg 98%
    06:00 +12°C° 0 mm 2 mps 763 mmHg 97%
    07:00 +12°C° 0 mm 2 mps 763 mmHg 97%
    08:00 +15°C° 0 mm 2 mps 762 mmHg 86%
    09:00 +18°C° 0 mm 3 mps 762 mmHg 74%
    10:00 +20°C° 0 mm 3 mps 762 mmHg 62%
    11:00 +22°C° 0 mm 3 mps 761 mmHg 57%
    12:00 +24°C° 0 mm 3 mps 760 mmHg 51%
    13:00 +25°C° 0 mm 4 mps 759 mmHg 46%
    14:00 +25°C° 0 mm 4 mps 759 mmHg 48%
    15:00 +25°C° 0 mm 4 mps 758 mmHg 50%
    16:00 +25°C° 0 mm 4 mps 758 mmHg 52%
    17:00 +22°C° 0 mm 4 mps 758 mmHg 58%
    18:00 +20°C° 0 mm 5 mps 758 mmHg 65%
    19:00 +17°C° 0 mm 5 mps 759 mmHg 72%
    20:00 +16°C° 0 mm 5 mps 758 mmHg 73%
    21:00 +15°C° 0 mm 5 mps 758 mmHg 75%
    22:00 +14°C° 0 mm 4 mps 758 mmHg 77%
    23:00 +14°C° 0 mm 4 mps 758 mmHg 78%

    2 May, Tuesday

    Time Temperature Precipitation Wind Pressure Humidity
    00:00 +13°C° 0 mm 3 mps 757 mmHg 79%
    01:00 +13°C° 0 mm 3 mps 757 mmHg 80%
    02:00 +12°C° 0 mm 3 mps 757 mmHg 81%
    03:00 +12°C° 0 mm 3 mps 757 mmHg 81%
    04:00 +12°C° 0 mm 3 mps 756 mmHg 82%
    05:00 +12°C° 0 mm 3 mps 757 mmHg 81%
    06:00 +12°C° 0 mm 3 mps 757 mmHg 80%
    07:00 +12°C° 0 mm 3 mps 757 mmHg 80%
    08:00 +14°C° 0 mm 3 mps 757 mmHg 70%
    09:00 +18°C° 0 mm 3 mps 757 mmHg 59%
    10:00 +21°C° 0 mm 3 mps 756 mmHg 49%
    11:00 +22°C° 0 mm 4 mps 756 mmHg 44%
    12:00 +23°C° 0 mm 4 mps 755 mmHg 39%
    13:00 +25°C° 0 mm 4 mps 755 mmHg 35%
    14:00 +25°C° 0 mm 3 mps 755 mmHg 37%
    15:00 +24°C° 0 mm 3 mps 755 mmHg 40%
    16:00 +24°C° 0 mm 3 mps 755 mmHg 43%
    17:00 +21°C° 0 mm 4 mps 755 mmHg 50%
    18:00 +19°C° 0 mm 5 mps 756 mmHg 56%
    19:00 +16°C° 0 mm 5 mps 756 mmHg 63%
    20:00 +15°C° 0 mm 6 mps 757 mmHg 65%
    21:00 +14°C° 0 mm 6 mps 757 mmHg 68%
    22:00 +13°C° 0 mm 6 mps 758 mmHg 70%
    23:00 +11°C° 0 mm 6 mps 758 mmHg 68%
    Show more